Weather reports worldwide

Advertisment
Calvi, France (7754): temperature & dewpoint: 11.01.2021 22:00:00 - 17.01.2021 22:00:00 (CET)Calvi, France (7754): temperature 5cm: 11.01.2021 22:00:00 - 17.01.2021 22:00:00 (CET)Calvi, France (7754): wind speed & gusts: 11.01.2021 22:00:00 - 17.01.2021 22:00:00 (CET)Calvi, France (7754): wind direction: 11.01.2021 22:00:00 - 17.01.2021 22:00:00 (CET)Calvi, France (7754): reduced air pressure: 11.01.2021 22:00:00 - 17.01.2021 22:00:00 (CET)Calvi, France (7754): visibility: 11.01.2021 22:00:00 - 17.01.2021 22:00:00 (CET)Calvi, France (7754): precipitation: 11.01.2021 22:00:00 - 17.01.2021 22:00:00 (CET)
Date & Time tt [°C] td [°C] tt 5cm [°C] ff [km/h] ff [kn] fx [km/h] fx [kn] dd ppp [hPa] vv [km] rr [mm]
17.01.2021 22:00:00 4,1 2,3 2,9 8 4 15 8 SSW 1016,8 60 0,0
17.01.2021 21:00:00 4,3 2,2 3,3 5 3 14 7 SSW 1015,7 60 0,0
17.01.2021 20:00:00 4,7 2,6 4,0 8 4 13 7 SSE 1014,6 60 0,0
17.01.2021 19:00:00 6,1 2,7 4,8 7 4 13 7 SSW 1013,7 60 0,0
17.01.2021 18:00:00 8,2 3,4 6,1 4 2 11 6 SSW 1013,5 60 0,0
17.01.2021 17:00:00 9,8 3,1 8,3 5 3 24 13 SW 1012,7 60 0,0
17.01.2021 16:00:00 13,2 2,7 14,4 13 7 29 16 SW 1012,7 55 0,0
17.01.2021 15:00:00 13,6 4,7 14,0 15 8 44 24 SW 1012,4 53 0,0
17.01.2021 14:00:00 13,7 5,8 13,5 22 12 57 31 SW 1011,8 46 0,0
17.01.2021 13:00:00 13,0 5,6 13,8 39 21 63 34 SSW 1012,2 32 0,0
17.01.2021 12:00:00 12,8 7,0 12,4 31 17 50 27 SSW 1013,2 20 0,0
17.01.2021 11:00:00 12,0 7,3 9,9 27 15 42 23 SSW 1013,7 19 0,0
17.01.2021 10:00:00 10,0 7,2 8,7 18 10 41 22 S 1014,3 44 0,0
17.01.2021 09:00:00 10,1 6,8 8,2 22 12 41 22 S 1014,4 20 0,0
17.01.2021 08:00:00 9,9 6,2 7,6 22 12 58 32 S 1014,0 19 0,0
17.01.2021 07:00:00 9,2 5,2 7,9 27 15 51 27 S 1014,2 19 0,0
17.01.2021 06:00:00 10,6 0,6 9,5 23 12 58 32 SSW 1014,3 60 0,0
17.01.2021 05:00:00 10,1 0,9 9,5 20 11 41 22 SSW 1014,5 60 0,0
17.01.2021 04:00:00 10,5 1,3 10,0 28 15 62 33 SSW 1015,6 60 0,0
17.01.2021 03:00:00 10,8 2,6 9,7 23 12 54 29 SSW 1015,4 60 0,0
17.01.2021 02:00:00 10,3 1,6 8,4 22 12 37 20 SSW 1016,8 60 0,0
17.01.2021 01:00:00 8,9 0,8 6,0 13 7 28 15 SSW 1018,6 60 0,0
17.01.2021 00:00:00 6,6 0,5 2,2 10 5 16 9 SSW 1019,6 60 0,0
16.01.2021 23:00:00 3,0 0,1 1,5 5 3 14 7 SSW 1020,3 60 0,0
16.01.2021 22:00:00 2,9 -0,2 0,6 7 4 11 6 SSW 1021,3 60 0,0
16.01.2021 21:00:00 2,4 -0,5 1,6 5 3 16 8 S 1021,3 60 0,0
16.01.2021 20:00:00 3,9 0,6 1,5 10 5 16 9 SSW 1021,6 60 0,0
16.01.2021 19:00:00 3,5 1,0 2,6 8 4 17 9 S 1021,4 58 0,0
16.01.2021 18:00:00 4,7 1,5 3,7 10 5 18 10 SSW 1021,0 60 0,0
16.01.2021 17:00:00 8,2 1,6 6,6 4 2 16 8 WNW 1020,3 60 0,0
16.01.2021 16:00:00 10,3 2,1 12,0 11 6 21 11 NW 1019,8 51 0,0
16.01.2021 15:00:00 11,1 2,4 12,7 10 5 19 10 NNW 1019,2 54 0,0
16.01.2021 14:00:00 11,7 1,3 12,3 15 8 25 13 N 1019,2 60 0,0
16.01.2021 13:00:00 11,5 2,2 12,7 19 10 27 14 N 1019,5 55 0,0
16.01.2021 12:00:00 11,6 1,2 11,7 2 1 10 5 SE 1020,0 57 0,0
16.01.2021 11:00:00 9,8 1,9 8,3 7 4 13 7 S 1020,2 49 0,0
16.01.2021 10:00:00 7,0 3,1 2,9 7 4 13 7 S 1019,9 55 0,0
16.01.2021 09:00:00 2,9 1,3 1,1 10 5 15 8 SSW 1019,6 58 0,0
16.01.2021 08:00:00 2,2 0,6 1,1 5 3 16 8 S 1019,1 57 0,0
16.01.2021 07:00:00 4,5 1,2 0,7 11 6 26 14 N 1018,3 60 0,0
16.01.2021 06:00:00 2,6 1,4 1,0 5 3 11 6 S 1017,5 35 0,0
16.01.2021 05:00:00 2,0 1,0 1,1 4 2 13 7 S 1017,2 29 0,0
16.01.2021 04:00:00 2,6 1,7 1,3 3 2 11 6 S 1016,8 25 0,0
16.01.2021 03:00:00 3,4 2,5 2,4 5 3 13 7 S 1016,2 19 0,0
16.01.2021 02:00:00 4,4 3,4 3,3 4 2 13 7 SW 1015,5 16 0,0
16.01.2021 01:00:00 4,5 3,5 3,6 10 5 14 8 SSE 1015,3 15 0,0
16.01.2021 00:00:00 5,2 3,8 4,4 7 4 13 7 S 1015,2 24 0,0
15.01.2021 23:00:00 6,9 5,5 6,2 6 3 15 8 SSW 1015,2 18 0,0
15.01.2021 22:00:00 6,8 5,4 6,0 4 2 11 6 S 1015,1 20 0,0
15.01.2021 21:00:00 6,4 5,3 5,8 9 5 14 8 SSE 1015,0 28 0,0
15.01.2021 20:00:00 6,6 5,5 5,7 9 5 13 7 S 1014,4 20 0,0
15.01.2021 19:00:00 7,1 6,0 6,1 11 6 15 8 SSE 1014,1 32 0,0
15.01.2021 18:00:00 8,7 5,8 6,9 0 0 19 10 N 1014,1 35 0,0
15.01.2021 17:00:00 10,1 6,6 9,7 9 5 25 14 NNW 1013,4 45 0,0
15.01.2021 16:00:00 12,2 6,5 13,3 8 4 15 8 N 1012,8 56 0,0
15.01.2021 15:00:00 11,9 6,4 11,4 9 5 24 13 ENE 1012,9 60 0,2
15.01.2021 14:00:00 11,3 6,2 11,4 16 8 25 13 NE 1013,1 58 0,0
15.01.2021 13:00:00 11,5 6,8 9,8 19 10 26 14 N 1013,2 53 0,0
15.01.2021 12:00:00 9,4 7,8 9,0 0 0 6 3 N 1013,9 60 0,0
15.01.2021 11:00:00 8,9 7,2 7,8 7 4 15 8 S 1013,9 60 0,0
15.01.2021 10:00:00 8,2 7,3 7,2 8 4 13 7 S 1013,1 19 0,0
15.01.2021 09:00:00 7,8 6,3 7,2 2 1 46 25 E 1012,6 7 0,2
15.01.2021 08:00:00 9,6 8,8 8,6 31 17 53 29 N 1011,4 3,3 0,4
15.01.2021 07:00:00 9,6 8,2 7,8 30 16 51 28 N 1010,5 4,2 2,0
15.01.2021 06:00:00 8,4 5,9 7,5 8 4 13 7 S 1009,8 58 0,0
15.01.2021 05:00:00 7,7 4,6 6,1 6 4 13 7 SSW 1009,9 60 0,0
15.01.2021 04:00:00 6,7 4,2 6,2 7 4 11 6 SSE 1010,0 60 0,0
15.01.2021 03:00:00 7,4 3,8 4,1 4 2 13 7 W 1010,3 60 0,0
15.01.2021 02:00:00 5,3 2,6 4,3 8 4 16 9 SSE 1010,3 60 0,0
15.01.2021 01:00:00 6,5 3,1 4,9 8 5 16 8 SSW 1010,6 60 0,0
15.01.2021 00:00:00 6,9 3,1 6,1 11 6 18 10 S 1010,9 60 0,0
14.01.2021 23:00:00 9,8 3,7 8,1 7 4 37 20 SW 1010,1 60 0,0
14.01.2021 22:00:00 11,9 4,8 10,5 17 9 42 23 S 1010,2 59 0,0
14.01.2021 21:00:00 11,6 4,6 9,8 19 11 40 21 S 1009,8 60 0,0
14.01.2021 20:00:00 10,6 5,8 9,8 16 9 35 19 S 1010,1 41 0,0
14.01.2021 19:00:00 11,0 6,1 10,2 24 13 36 20 SSE 1009,9 20 0,0
14.01.2021 18:00:00 11,7 6,4 10,7 23 12 40 22 S 1009,6 20 0,0
14.01.2021 17:00:00 12,4 6,7 11,9 21 11 48 26 SSW 1009,2 20 0,0
14.01.2021 16:00:00 13,4 7,2 14,0 27 14 55 30 SSW 1009,1 18 0,0
14.01.2021 15:00:00 14,3 7,6 14,7 23 12 54 29 SW 1008,5 19 0,0
14.01.2021 14:00:00 14,3 8,0 15,0 31 17 59 32 SW 1008,8 19 0,0
14.01.2021 13:00:00 14,8 7,6 15,7 30 16 63 34 SSW 1009,0 19 0,0
14.01.2021 12:00:00 14,9 7,7 15,3 37 20 66 36 SW 1009,3 20 0,0
14.01.2021 11:00:00 14,5 7,5 14,4 35 19 66 35 SSW 1010,7 38 0,0
14.01.2021 10:00:00 14,2 7,0 12,9 33 18 65 35 SSW 1010,4 40 0,0
14.01.2021 09:00:00 13,2 7,0 12,3 32 18 60 32 SSW 1010,6 48 0,0
14.01.2021 08:00:00 12,9 6,0 11,7 26 14 52 28 SSW 1010,8 60 0,0
14.01.2021 07:00:00 13,2 6,1 12,0 24 13 57 31 SSW 1011,4 60 0,0
14.01.2021 06:00:00 13,0 6,8 12,1 31 17 60 33 SW 1011,3 56 0,0
14.01.2021 05:00:00 13,0 6,8 12,2 29 16 59 32 SSW 1011,4 53 0,0
14.01.2021 04:00:00 13,2 7,0 12,2 35 19 66 35 SW 1011,9 51 0,0
14.01.2021 03:00:00 12,9 7,1 11,6 23 13 63 34 SSW 1012,3 56 0,0
14.01.2021 02:00:00 13,2 7,2 10,2 21 11 49 26 SW 1014,1 56 0,0
14.01.2021 01:00:00 13,3 6,6 11,3 21 11 54 29 SW 1014,4 60 0,0
14.01.2021 00:00:00 12,4 6,0 10,5 13 7 34 18 SSW 1014,6 60 0,0
13.01.2021 23:00:00 12,6 6,6 11,0 15 8 29 16 S 1015,3 60 0,0
13.01.2021 22:00:00 13,0 6,6 11,8 12 7 31 17 S 1015,1 60 0,0
13.01.2021 21:00:00 13,6 6,5 12,2 16 9 46 25 SSW 1015,1 60 0,0
13.01.2021 20:00:00 12,9 5,6 11,5 13 7 46 25 S 1014,8 60 0,0
13.01.2021 19:00:00 13,1 5,7 11,5 24 13 43 23 S 1014,8 60 0,0
13.01.2021 18:00:00 12,6 5,7 11,5 20 11 39 21 SSW 1015,5 60 0,0
13.01.2021 17:00:00 12,7 6,1 12,1 22 12 35 19 S 1015,3 60 0,0
13.01.2021 16:00:00 14,7 6,0 15,4 14 7 41 22 SSW 1015,3 56 0,0
13.01.2021 15:00:00 14,6 6,9 15,0 25 13 49 26 SSW 1014,5 20 0,0
13.01.2021 14:00:00 14,9 7,0 15,9 24 13 37 20 SSW 1014,1 54 0,0
13.01.2021 13:00:00 15,8 7,3 16,0 17 9 42 23 SSW 1014,5 53 0,0
13.01.2021 12:00:00 14,5 6,6 14,7 28 15 46 25 S 1015,3 57 0,0
13.01.2021 11:00:00 13,8 5,9 13,2 24 13 43 23 SSW 1015,6 56 0,0
13.01.2021 10:00:00 12,9 5,6 11,0 25 14 44 24 SSW 1015,8 43 0,0
13.01.2021 09:00:00 11,4 4,4 10,3 23 12 41 22 SSW 1015,4 57 0,0
13.01.2021 08:00:00 10,9 4,6 9,6 23 12 41 22 SSW 1014,9 60 0,0
13.01.2021 07:00:00 10,8 4,9 9,9 18 10 46 25 SW 1014,7 60 0,0
13.01.2021 06:00:00 10,8 5,5 9,6 24 13 52 28 SSW 1014,2 60 0,0
13.01.2021 05:00:00 10,7 5,0 9,9 29 16 53 29 SSW 1013,7 48 0,0
13.01.2021 04:00:00 10,7 5,0 9,8 27 14 55 30 SSW 1013,6 46 0,0
13.01.2021 03:00:00 10,6 4,3 9,8 29 16 63 34 SSW 1013,2 59 0,0
13.01.2021 02:00:00 10,7 3,2 9,6 26 14 48 26 SSW 1013,5 60 0,0
13.01.2021 01:00:00 10,5 3,3 9,6 23 13 58 31 SSW 1013,6 60 0,0
13.01.2021 00:00:00 10,8 2,9 9,9 32 17 56 31 SSW 1013,5 60 0,0
12.01.2021 23:00:00 10,7 2,5 9,4 30 16 55 30 SSW 1013,1 60 0,0
12.01.2021 22:00:00 10,2 1,6 8,7 16 9 39 21 S 1013,7 60 0,0
12.01.2021 21:00:00 9,6 1,2 7,8 14 8 32 18 SSW 1014,0 60 0,0
12.01.2021 20:00:00 8,3 2,1 7,4 15 8 29 15 S 1014,4 60 0,0
12.01.2021 19:00:00 8,4 1,3 7,3 18 10 34 18 SSE 1014,4 60 0,0
12.01.2021 18:00:00 9,1 0,0 7,0 18 10 35 19 SSW 1014,7 60 0,0
12.01.2021 17:00:00 9,1 1,0 8,3 13 7 27 15 S 1014,8 60 0,0
12.01.2021 16:00:00 10,9 -0,3 11,3 14 7 35 19 SW 1015,2 56 0,0
12.01.2021 15:00:00 11,5 1,7 12,3 11 6 23 12 SSW 1015,9 43 0,0
12.01.2021 14:00:00 11,0 1,0 11,7 9 5 18 10 SSW 1016,5 30 0,0
12.01.2021 13:00:00 10,3 2,1 10,2 8 4 14 8 S 1017,2 55 0,0
12.01.2021 12:00:00 10,8 0,8 11,7 2 1 10 5 SSW 1018,0 58 0,0
12.01.2021 11:00:00 9,8 0,9 8,4 4 2 11 6 SSE 1018,7 56 0,0
12.01.2021 10:00:00 7,0 1,7 1,1 4 2 15 8 S 1018,4 50 0,0
12.01.2021 09:00:00 1,3 -1,3 0,5 8 5 16 9 SSW 1017,9 45 0,0
12.01.2021 08:00:00 1,3 -1,3 -0,8 7 4 17 9 SSW 1017,3 49 0,0
12.01.2021 07:00:00 0,4 -1,5 -0,3 9 5 16 9 S 1017,6 53 0,0
12.01.2021 06:00:00 1,3 -1,1 -0,1 11 6 15 8 SSW 1017,2 42 0,0
12.01.2021 05:00:00 0,4 -1,4 -0,4 10 6 16 9 S 1017,3 45 0,0
12.01.2021 04:00:00 0,6 -1,0 -0,1 11 6 15 8 S 1017,8 46 0,0
12.01.2021 03:00:00 1,0 -0,8 0,2 7 4 10 6 S 1017,8 44 0,0
12.01.2021 02:00:00 1,5 0,0 0,8 8 5 12 7 S 1017,5 44 0,0
12.01.2021 01:00:00 1,8 0,0 0,8 5 3 11 6 SSW 1017,6 52 0,0
12.01.2021 00:00:00 1,9 0,0 1,0 4 2 13 7 S 1017,7 48 0,0
11.01.2021 23:00:00 2,6 0,5 0,9 7 4 13 7 S 1017,7 47 0,0
11.01.2021 22:00:00 2,1 -0,2 0,9 4 2 16 9 S 1017,8 51 0,0

tt = temperature
td = dewpoint
tt 5cm = temperature 5cm
ff = wind speed
fx = gusts
dd = wind direction
ppp = reduced air pressure
vv = visibility
rr = precipitation

Next stations